This is the latest recevied weather packets stored in our database for station/object WI5KEY. If no packets are shown the sender has not sent any weather packets the latest 10 day(s).
| Time | Temp. | Humidity | Pressure | Rain* | Wind** | Luminosity | Snow |
|---|---|---|---|---|---|---|---|
| 1777529752 | 18.89° C | 86% | 1012.1 hPa | 0 mm | - | - | - |
| 1777528845 | 18.89° C | 86% | 1011.7 hPa | 0 mm | - | - | - |
| 1777527938 | 18.89° C | 86% | 1012 hPa | 0 mm | - | - | - |
| 1777527035 | 18.89° C | 86% | 1012.2 hPa | 0 mm | - | - | - |
| 1777526133 | 19.44° C | 86% | 1012.1 hPa | 0 mm | - | - | - |
| 1777525230 | 19.44° C | 86% | 1012.1 hPa | 0 mm | - | - | - |
| 1777524328 | 19.44° C | 86% | 1012.5 hPa | 0 mm | - | - | - |
| 1777523426 | 19.44° C | 87% | 1012.5 hPa | 0 mm | - | - | - |
| 1777522523 | 19.44° C | 87% | 1012 hPa | 0 mm | - | - | - |
| 1777521631 | 19.44° C | 87% | 1011.3 hPa | 0 mm | - | - | - |
| 1777520722 | 20° C | 86% | 1011.3 hPa | 0 mm | - | - | - |
| 1777519819 | 20° C | 86% | 1011.7 hPa | 0 mm | - | - | - |
| 1777518919 | 20° C | 86% | 1011.8 hPa | 0 mm | - | - | - |
| 1777518016 | 20.56° C | 87% | 1011.4 hPa | 0 mm | - | - | - |
| 1777517116 | 20.56° C | 87% | 1011.4 hPa | 0 mm | - | - | - |
| 1777516214 | 20.56° C | 87% | 1010.9 hPa | 0 mm | - | - | - |
| 1777515308 | 20.56° C | 87% | 1010.7 hPa | 0 mm | - | - | - |
| 1777514409 | 20.56° C | 87% | 1010.3 hPa | 0 mm | - | - | - |
| 1777513506 | 21.11° C | 87% | 1010 hPa | 0 mm | - | - | - |
| 1777512604 | 21.11° C | 87% | 1010.3 hPa | 0 mm | - | - | - |
| 1777511819 | 21.67° C | 87% | 1009.8 hPa | 0 mm | - | - | - |
| 1777510862 | 22.22° C | 87% | 1009.8 hPa | 0 mm | - | - | - |
| 1777509953 | 22.78° C | 86% | 1009.7 hPa | 0 mm | - | - | - |
| 1777509051 | 23.33° C | 85% | 1009.3 hPa | 0 mm | - | - | - |
| 1777508147 | 24.44° C | 82% | 1008.8 hPa | 0 mm | - | - | - |
* Rain latest hour (hover to see other rain measurements)
** Current wind speed in m/s (hover to see current wind gust speed)